User: anonymous   Login
Location: Unspecified
(0.0000°N, 0.0000°E)
Time: 18:17:56
(UTC+00:00)
Language:

Vanguard 1 Rocket - Orbit

View from above orbital plane
View from above orbital plane
View from above satellite
View from above satellite

Ground track
Ground track

The orbit data is extracted from the following two-line orbital elements,

1    16U 58002A   19107.89765710 +.00000107 +00000-0 +11902-3 0  9997
2    16 034.2767 306.3302 2026914 239.1775 099.3859 10.48744113414053
Epoch (UTC): 17 April 2019 21:32:37
Eccentricity: 0.2026914
inclination: 34.2767°
perigee height: 651 km
apogee height: 4225 km
right ascension of ascending node: 306.3302°
argument of perigee: 239.1775°
revolutions per day: 10.48744113
mean anomaly at epoch: 99.3859°
orbit number at epoch: 41405

The dashed part of the orbit path shows where the satellite is in the earth's shadow,  

DLR